Location: Champs
(48.8539°N, 2.6040°E)
Time: 22:35:37
(UTC+00:00)

Cosmos 1953 - Pass Details

Date: 06 June 2022
Orbit: 533 x 555 km, 82.5° (Epoch: 01 July)

Event Time Altitude Azimuth Distance (km) Brightness Sun altitude
Rises 22:31:15 0° 354° (N) 2,713 7.5 -16.4°
Reaches altitude 10° 22:33:28 10° 359° (N) 1,812 6.1 -16.5°
Maximum altitude 22:37:23 53° 77° (ENE) 666 2.6 -16.7°
Enters shadow 22:38:51 33° 137° (SE) 921 3.0 -16.8°
